M I D A S
Marine Information and Data Acquisition System
Tripno 1713 of the Zeeleeuw from 2009-06-22 07:20:52 to 2009-06-22 15:14:20
Back to CruiseResearch ActivitiesStationsMapUnderway DataData graphs

EquipmentUnitsComments
TimeDGPSUTC
LatitudeDGPSDM.mWGS84
LongitudeDGPSDM.mWGS84
SpeedMeteo Stationm/sRelative wind speed
DirectionMeteo StationdegRelative wind direction
TemperatureMeteo Stationdeg CelciusAir temperature
PressureMeteo StationPaAtmospheric pressure
HumidityMeteo Station%Relative humidity
Missing or incorrect values are displayed as -999
Metereological data collected by the RV Zeeleeuw from 2009-06-22 06:43:57 to 2009-06-22 15:30:18
                                                                                    Next 1000 lines
Time Latitude Longitude Speed Direction Temperature Pressure Humidity
2009-06-22 06:44:07 51°13.663 2°55.96 1.1 302 13.7 102700 68
2009-06-22 06:44:12 51°13.663 2°55.96 1.5 324 13.7 102700 67
2009-06-22 06:44:17 51°13.663 2°55.96 1.7 303 13.7 102700 67
2009-06-22 06:44:22 51°13.663 2°55.96 1.5 319 13.7 102700 67
2009-06-22 06:44:27 51°13.663 2°55.96 1.4 309 13.7 102700 67
2009-06-22 06:44:32 51°13.663 2°55.96 1.4 317 13.7 102700 67
2009-06-22 06:44:37 51°13.663 2°55.96 2.2 308 13.7 102700 67
2009-06-22 06:44:42 51°13.663 2°55.96 1.8 321 13.7 102700 67
2009-06-22 06:44:47 51°13.663 2°55.96 1.7 304 13.7 102700 67
2009-06-22 06:44:52 51°13.663 2°55.96 2.4 24 13.7 102700 67
2009-06-22 06:44:57 51°13.663 2°55.96 2.9 326 13.7 102700 67
2009-06-22 06:45:02 51°13.663 2°55.96 2.3 328 13.7 102700 67
2009-06-22 06:45:07 51°13.663 2°55.96 2.1 327 13.7 102700 67
2009-06-22 06:45:12 51°13.663 2°55.96 2 322 13.7 102710 67
2009-06-22 06:45:17 51°13.663 2°55.96 2.5 331 13.7 102710 67
2009-06-22 06:45:22 51°13.663 2°55.96 2.2 318 13.7 102700 67
2009-06-22 06:45:27 51°13.663 2°55.96 1.8 329 13.7 102700 67
2009-06-22 06:45:32 51°13.663 2°55.96 1.5 26 13.7 102700 67
2009-06-22 06:45:37 51°13.663 2°55.96 2.2 284 13.7 102700 67
2009-06-22 06:45:42 51°13.663 2°55.96 2.3 322 13.7 102700 67
2009-06-22 06:45:47 51°13.662 2°55.96 2 303 13.7 102700 67
2009-06-22 06:45:52 51°13.662 2°55.96 1.7 315 13.7 102700 67
2009-06-22 06:45:57 51°13.662 2°55.96 1.9 311 13.7 102700 67
2009-06-22 06:46:02 51°13.662 2°55.96 2.6 24 13.7 102700 67
2009-06-22 06:46:07 51°13.662 2°55.96 3.2 311 13.7 102700 67
2009-06-22 06:46:12 51°13.662 2°55.96 2.6 324 13.7 102700 67
2009-06-22 06:46:17 51°13.662 2°55.96 3.4 327 13.7 102700 67
2009-06-22 06:46:22 51°13.662 2°55.96 3.4 321 13.7 102700 67
2009-06-22 06:46:27 51°13.662 2°55.96 2.7 305 13.7 102700 67
2009-06-22 06:46:32 51°13.662 2°55.96 2.9 318 13.7 102700 67
2009-06-22 06:46:37 51°13.662 2°55.96 3.1 301 13.7 102700 67
2009-06-22 06:46:42 51°13.662 2°55.96 2.8 324 13.7 102700 66
2009-06-22 06:46:47 51°13.662 2°55.96 2.8 324 13.7 102700 66
2009-06-22 06:46:52 51°13.662 2°55.96 3.1 317 13.7 102700 67
2009-06-22 06:46:57 51°13.662 2°55.96 2.8 309 13.7 102700 67
2009-06-22 06:47:02 51°13.662 2°55.96 3.3 323 13.7 102700 67
2009-06-22 06:47:07 51°13.662 2°55.96 2.7 325 13.7 102700 67
2009-06-22 06:47:12 51°13.662 2°55.96 2.6 324 13.7 102700 67
2009-06-22 06:47:17 51°13.663 2°55.96 3.2 303 13.7 102700 67
2009-06-22 06:47:22 51°13.663 2°55.96 2.7 327 13.7 102700 67
2009-06-22 06:47:27 51°13.663 2°55.96 3 304 13.7 102700 67
2009-06-22 06:47:32 51°13.663 2°55.96 2.2 329 13.7 102700 67
2009-06-22 06:47:37 51°13.663 2°55.959 2.4 281 13.7 102700 67
2009-06-22 06:47:42 51°13.662 2°55.959 2.9 319 13.7 102700 67
2009-06-22 06:47:47 51°13.662 2°55.959 2.3 304 13.7 102700 67
2009-06-22 06:47:52 51°13.662 2°55.959 2.2 320 13.7 102700 66
2009-06-22 06:47:57 51°13.662 2°55.96 2.6 302 13.7 102700 66
2009-06-22 06:48:02 51°13.662 2°55.96 2.3 318 13.7 102700 67
2009-06-22 06:48:07 51°13.662 2°55.959 2.2 304 13.7 102700 67
2009-06-22 06:48:12 51°13.662 2°55.96 2.8 321 13.7 102700 67
2009-06-22 06:48:17 51°13.662 2°55.96 2.3 323 13.7 102700 67
2009-06-22 06:48:22 51°13.662 2°55.959 1.9 332 13.6 102700 66
2009-06-22 06:48:27 51°13.662 2°55.959 1.6 331 13.6 102700 66
2009-06-22 06:48:32 51°13.662 2°55.959 1.4 317 13.7 102700 67
2009-06-22 06:48:37 51°13.662 2°55.959 2 277 13.7 102700 67
2009-06-22 06:48:42 51°13.662 2°55.959 1.7 335 13.6 102700 66
2009-06-22 06:48:47 51°13.662 2°55.959 2.7 328 13.6 102700 66
2009-06-22 06:48:52 51°13.662 2°55.959 2.8 329 13.7 102700 66
2009-06-22 06:48:57 51°13.662 2°55.959 2.8 327 13.7 102700 66
2009-06-22 06:49:02 51°13.662 2°55.959 2.4 327 13.7 102700 67
2009-06-22 06:49:07 51°13.662 2°55.959 2 330 13.7 102700 67
2009-06-22 06:49:12 51°13.662 2°55.959 1.9 327 13.6 102700 67
2009-06-22 06:49:17 51°13.662 2°55.959 1.7 306 13.6 102700 67
2009-06-22 06:49:22 51°13.663 2°55.959 1.6 319 13.6 102700 67
2009-06-22 06:49:27 51°13.663 2°55.96 2.1 310 13.6 102700 67
2009-06-22 06:49:32 51°13.663 2°55.96 1.8 319 13.7 102700 67
2009-06-22 06:49:37 51°13.663 2°55.96 1.9 305 13.7 102700 67
2009-06-22 06:49:42 51°13.663 2°55.959 1.6 322 13.7 102700 67
2009-06-22 06:49:47 51°13.663 2°55.959 2.1 304 13.7 102700 67
2009-06-22 06:49:52 51°13.663 2°55.959 2 322 13.6 102700 66
2009-06-22 06:49:57 51°13.663 2°55.96 2 306 13.6 102700 66
2009-06-22 06:50:02 51°13.663 2°55.96 2.4 319 13.7 102700 67
2009-06-22 06:50:07 51°13.663 2°55.96 1.8 304 13.7 102700 67
2009-06-22 06:50:12 51°13.663 2°55.96 1.6 319 13.7 102700 67
2009-06-22 06:50:17 51°13.663 2°55.96 1.5 305 13.7 102700 67
2009-06-22 06:50:22 51°13.663 2°55.96 1.7 334 13.7 102700 67
2009-06-22 06:50:27 51°13.663 2°55.96 1.5 303 13.7 102700 67
2009-06-22 06:50:32 51°13.663 2°55.96 1.2 25 13.7 102700 67
2009-06-22 06:50:37 51°13.663 2°55.96 1.2 302 13.7 102700 67
2009-06-22 06:50:42 51°13.663 2°55.96 1.5 323 13.7 102700 67
2009-06-22 06:50:47 51°13.663 2°55.96 1.5 328 13.7 102700 67
2009-06-22 06:50:52 51°13.663 2°55.96 2 327 13.7 102700 67
2009-06-22 06:50:57 51°13.663 2°55.96 1.4 308 13.7 102700 67
2009-06-22 06:51:02 51°13.663 2°55.96 1.7 20 13.7 102700 67
2009-06-22 06:51:07 51°13.664 2°55.961 2.2 304 13.7 102700 67
2009-06-22 06:51:12 51°13.664 2°55.961 2 316 13.7 102710 67
2009-06-22 06:51:17 51°13.664 2°55.961 1.3 331 13.7 102710 67
2009-06-22 06:51:22 51°13.664 2°55.961 1.4 318 13.7 102700 67
2009-06-22 06:51:27 51°13.664 2°55.961 1.1 301 13.7 102700 67
2009-06-22 06:51:30 51°13.664 2°55.961 0.8 27 13.7 102710 67
2009-06-22 06:51:37 51°13.664 2°55.961 0.8 27 13.7 102710 67
2009-06-22 06:51:42 51°13.664 2°55.961 0.8 27 13.7 102710 67
2009-06-22 06:51:47 51°13.664 2°55.961 0.8 27 13.7 102710 67
2009-06-22 06:51:52 51°13.664 2°55.961 0.8 27 13.7 102710 67
2009-06-22 06:51:57 51°13.663 2°55.96 0.8 27 13.7 102710 67
2009-06-22 06:52:02 51°13.663 2°55.96 -999 -999 -999 -999 -999
2009-06-22 06:52:07 51°13.663 2°55.96 -999 -999 -999 -999 -999
2009-06-22 06:52:12 51°13.663 2°55.96 -999 -999 -999 -999 -999
2009-06-22 06:52:17 51°13.663 2°55.96 2.4 24 -999 -999 -999
2009-06-22 06:52:22 51°13.663 2°55.96 1.8 319 -999 -999 -999
2009-06-22 06:52:27 51°13.663 2°55.96 1.4 304 -999 -999 -999
2009-06-22 06:52:32 51°13.663 2°55.96 1.6 318 -999 -999 -999
2009-06-22 06:52:37 51°13.663 2°55.96 1 307 -999 -999 -999
2009-06-22 06:52:42 51°13.663 2°55.96 1.2 318 13.7 -999 67
2009-06-22 06:52:47 51°13.663 2°55.96 1.2 302 13.7 -999 67
2009-06-22 06:52:52 51°13.663 2°55.96 1.4 328 13.7 -999 67
2009-06-22 06:52:57 51°13.663 2°55.96 1 335 13.7 -999 67
2009-06-22 06:53:02 51°13.663 2°55.96 1.3 326 13.8 102710 66
2009-06-22 06:53:07 51°13.663 2°55.96 1.6 333 13.8 102710 66
2009-06-22 06:53:12 51°13.663 2°55.961 1.3 334 13.8 102710 67
2009-06-22 06:53:17 51°13.664 2°55.961 1.2 329 13.8 102710 67
2009-06-22 06:53:22 51°13.664 2°55.961 1.2 328 13.8 102710 67
2009-06-22 06:53:27 51°13.664 2°55.961 1.4 309 13.8 102710 67
2009-06-22 06:53:32 51°13.664 2°55.961 1.4 328 13.8 102700 67
2009-06-22 06:53:37 51°13.664 2°55.961 1.6 302 13.8 102700 67
2009-06-22 06:53:41 51°13.664 2°55.961 1.8 322 13.8 102700 67
2009-06-22 06:53:47 51°13.664 2°55.961 1.5 322 13.8 102700 67
2009-06-22 06:53:52 51°13.663 2°55.961 1.8 26 13.8 102710 67
2009-06-22 06:53:56 51°13.663 2°55.961 2.1 303 13.8 102710 67
2009-06-22 06:54:01 51°13.663 2°55.961 2 317 13.8 102710 67
2009-06-22 06:54:06 51°13.663 2°55.96 2 304 13.8 102710 67
2009-06-22 06:54:11 51°13.662 2°55.96 1.7 322 13.8 102700 66
2009-06-22 06:54:16 51°13.662 2°55.959 2 309 13.8 102700 66
2009-06-22 06:54:20 51°13.662 2°55.959 1.7 324 13.8 102710 67
2009-06-22 06:54:25 51°13.662 2°55.959 1.8 303 13.8 102710 67
2009-06-22 06:54:31 51°13.662 2°55.959 1.6 318 13.8 102710 67
2009-06-22 06:54:36 51°13.662 2°55.959 1.5 305 13.8 102710 67
2009-06-22 06:54:41 51°13.662 2°55.959 1.3 324 13.8 102700 67
2009-06-22 06:54:47 51°13.662 2°55.959 1.3 301 13.8 102700 67
2009-06-22 06:54:52 51°13.663 2°55.96 1 316 13.8 102700 66
2009-06-22 06:54:57 51°13.662 2°55.959 0.9 303 13.8 102700 66
2009-06-22 06:55:02 51°13.662 2°55.959 1.4 322 13.8 102700 67
2009-06-22 06:55:06 51°13.662 2°55.959 1.3 332 13.8 102700 67
2009-06-22 06:55:12 51°13.663 2°55.96 0.7 332 13.9 102700 67
2009-06-22 06:55:17 51°13.662 2°55.96 1.2 302 13.9 102700 67
2009-06-22 06:55:22 51°13.662 2°55.959 1 26 13.9 102700 67
2009-06-22 06:55:27 51°13.662 2°55.96 1 338 13.9 102700 67
2009-06-22 06:55:31 51°13.663 2°55.96 1.1 319 13.9 102700 67
2009-06-22 06:55:36 51°13.663 2°55.96 2.4 327 13.9 102700 67
2009-06-22 06:55:41 51°13.663 2°55.96 1.9 319 13.9 102700 67
2009-06-22 06:55:46 51°13.663 2°55.96 2.2 333 13.9 102700 67
2009-06-22 06:55:52 51°13.663 2°55.96 2 331 13.9 102710 67
2009-06-22 06:55:57 51°13.663 2°55.96 2.5 326 13.9 102710 67
2009-06-22 06:56:01 51°13.662 2°55.96 2.2 327 13.9 102700 67
2009-06-22 06:56:07 51°13.662 2°55.96 2.2 328 13.9 102700 67
2009-06-22 06:56:12 51°13.662 2°55.96 1.8 332 13.9 102700 67
2009-06-22 06:56:17 51°13.662 2°55.96 1.9 332 13.9 102700 67
2009-06-22 06:56:22 51°13.662 2°55.96 1.9 326 13.9 102710 66
2009-06-22 06:56:27 51°13.662 2°55.96 2.3 330 13.9 102710 66
2009-06-22 06:56:32 51°13.662 2°55.96 2.5 324 13.9 102700 66
2009-06-22 06:56:37 51°13.662 2°55.96 2.2 329 13.9 102700 66
2009-06-22 06:56:42 51°13.662 2°55.959 1.5 333 13.9 102710 66
2009-06-22 06:56:47 51°13.662 2°55.96 1.6 339 13.9 102710 66
2009-06-22 06:56:52 51°13.662 2°55.96 1.2 322 13.9 102710 66
2009-06-22 06:56:57 51°13.662 2°55.96 1.9 303 13.9 102710 66
2009-06-22 06:57:02 51°13.662 2°55.96 1.5 327 13.9 102700 66
2009-06-22 06:57:07 51°13.662 2°55.96 1.9 325 13.9 102700 66
2009-06-22 06:57:12 51°13.662 2°55.96 1.4 330 13.9 102710 66
2009-06-22 06:57:17 51°13.662 2°55.96 1.8 301 13.9 102710 66
2009-06-22 06:57:21 51°13.662 2°55.96 1.7 22 13.9 102700 66
2009-06-22 06:57:26 51°13.662 2°55.96 1.6 303 13.9 102700 66
2009-06-22 06:57:31 51°13.663 2°55.961 1.5 317 13.9 102700 66
2009-06-22 06:57:37 51°13.663 2°55.961 1.5 303 13.9 102700 66
2009-06-22 06:57:41 51°13.663 2°55.96 1.2 315 13.9 102710 66
2009-06-22 06:57:46 51°13.663 2°55.96 1.7 329 13.9 102710 66
2009-06-22 06:57:51 51°13.663 2°55.96 1.7 327 13.9 102710 66
2009-06-22 06:57:56 51°13.663 2°55.961 1.3 333 13.9 102710 66
2009-06-22 06:58:01 51°13.663 2°55.961 1.6 328 13.9 102710 66
2009-06-22 06:58:06 51°13.663 2°55.961 1.6 332 13.9 102710 66
2009-06-22 06:58:08 51°13.663 2°55.961 2.5 327 13.9 102710 66
2009-06-22 06:58:08 51°13.663 2°55.961 1.9 328 13.9 102710 66
2009-06-22 06:58:08 51°13.663 2°55.961 2.2 326 13.9 102700 66
2009-06-22 06:58:08 51°13.663 2°55.961 2.1 327 13.9 102700 66
2009-06-22 06:58:31 51°13.663 2°55.961 2 327 13.9 102710 66
2009-06-22 06:58:36 51°13.663 2°55.961 1.6 325 13.9 102710 66
2009-06-22 06:58:41 51°13.663 2°55.961 1.7 324 14 102710 65
2009-06-22 06:58:46 51°13.663 2°55.961 1.4 327 14 102710 65
2009-06-22 06:58:52 51°13.663 2°55.961 1.6 332 13.9 102710 66
2009-06-22 06:58:57 51°13.663 2°55.961 1.1 328 13.9 102710 66
2009-06-22 06:59:01 51°13.663 2°55.961 1.3 328 13.9 102710 66
2009-06-22 06:59:07 51°13.663 2°55.961 1.6 303 13.9 102710 66
2009-06-22 06:59:12 51°13.663 2°55.961 1.4 332 13.9 102710 65
2009-06-22 06:59:17 51°13.663 2°55.961 1.6 329 13.9 102710 65
2009-06-22 06:59:22 51°13.663 2°55.961 1.6 334 13.9 102710 66
2009-06-22 06:59:27 51°13.663 2°55.961 1.4 301 13.9 102710 66
2009-06-22 06:59:32 51°13.663 2°55.961 1.2 327 14 102710 66
2009-06-22 06:59:37 51°13.663 2°55.96 2 329 14 102710 66
2009-06-22 06:59:41 51°13.663 2°55.961 2 326 14 102700 65
2009-06-22 06:59:47 51°13.663 2°55.96 2.1 332 14 102700 65
2009-06-22 06:59:52 51°13.663 2°55.961 1.7 332 14 102700 66
2009-06-22 06:59:57 51°13.663 2°55.96 2.1 302 14 102700 66
2009-06-22 07:00:02 51°13.663 2°55.961 1.8 328 14 102710 66
2009-06-22 07:00:07 51°13.663 2°55.96 1.8 332 14 102710 66
2009-06-22 07:00:12 51°13.663 2°55.96 1.8 331 14 102710 65
2009-06-22 07:00:17 51°13.663 2°55.96 1.6 300 14 102710 65
2009-06-22 07:00:21 51°13.662 2°55.96 1.4 19 14 102700 65
2009-06-22 07:00:27 51°13.662 2°55.96 1.1 306 14 102700 65
2009-06-22 07:00:32 51°13.662 2°55.96 1.2 322 13.9 102710 65
2009-06-22 07:00:37 51°13.662 2°55.96 1.8 306 13.9 102710 65
2009-06-22 07:00:42 51°13.662 2°55.961 1.4 21 13.9 102700 65
2009-06-22 07:00:47 51°13.662 2°55.96 1.7 307 13.9 102700 65
2009-06-22 07:00:52 51°13.662 2°55.96 1.4 319 14 102710 65
2009-06-22 07:00:56 51°13.662 2°55.96 1.1 302 14 102710 65
2009-06-22 07:01:01 51°13.662 2°55.96 0.6 321 14 102710 66
2009-06-22 07:01:07 51°13.662 2°55.96 1.3 324 14 102710 66
2009-06-22 07:01:12 51°13.662 2°55.96 1 320 14 102700 65
2009-06-22 07:01:17 51°13.662 2°55.96 0.7 301 14 102700 65
2009-06-22 07:01:22 51°13.663 2°55.96 1 324 14 102710 65
2009-06-22 07:01:26 51°13.663 2°55.96 1 328 14 102710 65
2009-06-22 07:01:31 51°13.663 2°55.96 1.1 21 14 102700 65
2009-06-22 07:01:36 51°13.663 2°55.96 1.1 301 14 102700 65
2009-06-22 07:01:41 51°13.663 2°55.96 1.2 323 14 102700 65
2009-06-22 07:01:47 51°13.664 2°55.96 1.5 306 14 102700 65
2009-06-22 07:01:52 51°13.664 2°55.96 1.5 318 14 102710 66
2009-06-22 07:01:56 51°13.664 2°55.96 1.2 303 14 102710 66
2009-06-22 07:02:01 51°13.664 2°55.96 1.3 29 14 102710 66
2009-06-22 07:02:06 51°13.664 2°55.96 1.2 301 14 102710 66
2009-06-22 07:02:11 51°13.663 2°55.96 1.2 22 14 102710 66
2009-06-22 07:02:16 51°13.662 2°55.96 1.3 304 14 102710 66
2009-06-22 07:02:21 51°13.662 2°55.96 1.2 19 14 102710 66
2009-06-22 07:02:27 51°13.663 2°55.96 1.5 305 14 102710 66
2009-06-22 07:02:32 51°13.663 2°55.96 1.8 18 14.1 102700 66
2009-06-22 07:02:37 51°13.663 2°55.96 1.2 305 14.1 102700 66
2009-06-22 07:02:41 51°13.663 2°55.96 1.2 25 14.1 102700 66
2009-06-22 07:02:47 51°13.663 2°55.96 1.2 305 14.1 102700 66
2009-06-22 07:02:52 51°13.663 2°55.96 0.7 335 14.1 102710 65
2009-06-22 07:02:57 51°13.663 2°55.96 0.7 305 14.1 102710 65
2009-06-22 07:03:01 51°13.663 2°55.96 0.9 319 14.1 102710 66
2009-06-22 07:03:07 51°13.663 2°55.96 1.2 323 14.1 102710 66
2009-06-22 07:03:12 51°13.663 2°55.96 1.4 328 14.1 102710 66
2009-06-22 07:03:17 51°13.662 2°55.96 1.2 335 14.1 102710 66
2009-06-22 07:03:21 51°13.662 2°55.96 1.2 336 14.1 102710 66
2009-06-22 07:03:27 51°13.662 2°55.959 1.4 334 14.1 102710 66
2009-06-22 07:03:32 51°13.662 2°55.959 1.6 334 14.2 102710 66
2009-06-22 07:03:37 51°13.662 2°55.959 1.3 326 14.2 102710 66
2009-06-22 07:03:42 51°13.662 2°55.959 0.9 328 14.2 102710 65
2009-06-22 07:03:47 51°13.663 2°55.96 1.1 325 14.2 102710 65
2009-06-22 07:03:52 51°13.663 2°55.96 1.3 322 14.2 102710 65
2009-06-22 07:03:57 51°13.662 2°55.959 1.4 326 14.2 102710 65
2009-06-22 07:04:02 51°13.663 2°55.96 1.6 329 14.2 102710 65
2009-06-22 07:04:07 51°13.662 2°55.959 2 306 14.2 102710 65
2009-06-22 07:04:12 51°13.662 2°55.959 1.5 325 14.2 102710 65
2009-06-22 07:04:17 51°13.663 2°55.96 1.3 309 14.2 102710 65
2009-06-22 07:04:21 51°13.663 2°55.96 1.4 23 14.2 102710 66
2009-06-22 07:04:26 51°13.663 2°55.96 0.7 303 14.2 102710 66
2009-06-22 07:04:31 51°13.663 2°55.959 1.4 321 14.2 102710 65
2009-06-22 07:04:37 51°13.663 2°55.96 1.4 330 14.2 102710 65
2009-06-22 07:04:41 51°13.663 2°55.96 1 21 14.3 102710 65
2009-06-22 07:04:46 51°13.663 2°55.96 0.8 309 14.3 102710 65
2009-06-22 07:04:52 51°13.663 2°55.96 1.1 20 14.3 102710 65
2009-06-22 07:04:57 51°13.663 2°55.96 1.1 305 14.3 102710 65
2009-06-22 07:05:01 51°13.663 2°55.96 1.4 319 14.3 102710 65
2009-06-22 07:05:07 51°13.663 2°55.96 1.2 303 14.3 102710 65
2009-06-22 07:05:12 51°13.663 2°55.959 1.3 26 14.3 102710 65
2009-06-22 07:05:17 51°13.663 2°55.96 1.8 310 14.3 102710 65
2009-06-22 07:05:22 51°13.663 2°55.959 0.9 19 14.3 102710 65
2009-06-22 07:05:27 51°13.663 2°55.959 0.6 302 14.3 102710 65
2009-06-22 07:05:32 51°13.663 2°55.96 0.8 321 14.3 102710 65
2009-06-22 07:05:37 51°13.663 2°55.96 1.5 307 14.3 102710 65
2009-06-22 07:05:41 51°13.663 2°55.96 1.7 29 14.3 102710 65
2009-06-22 07:05:47 51°13.663 2°55.96 1 303 14.3 102710 65
2009-06-22 07:05:52 51°13.663 2°55.96 1.4 26 14.3 102710 65
2009-06-22 07:05:57 51°13.663 2°55.96 0.9 303 14.3 102710 65
2009-06-22 07:06:01 51°13.663 2°55.96 0.9 26 14.4 102710 65
2009-06-22 07:06:07 51°13.663 2°55.96 0.7 337 14.4 102710 65
2009-06-22 07:06:12 51°13.663 2°55.96 0.7 330 14.4 102710 65
2009-06-22 07:06:17 51°13.662 2°55.96 0.8 303 14.4 102710 65
2009-06-22 07:06:22 51°13.663 2°55.96 0.8 324 14.4 102710 65
2009-06-22 07:06:27 51°13.663 2°55.96 0.8 308 14.4 102710 65
2009-06-22 07:06:32 51°13.663 2°55.96 0.6 20 14.4 102710 65
2009-06-22 07:06:37 51°13.663 2°55.96 1.1 308 14.4 102710 65
2009-06-22 07:06:42 51°13.662 2°55.96 1.1 23 14.4 102710 65
2009-06-22 07:06:47 51°13.662 2°55.96 1.5 301 14.4 102710 65
2009-06-22 07:06:52 51°13.662 2°55.96 1.1 321 14.4 102710 65
2009-06-22 07:06:57 51°13.663 2°55.96 1.1 305 14.4 102710 65
2009-06-22 07:07:02 51°13.662 2°55.96 1 320 14.5 102710 65
2009-06-22 07:07:07 51°13.662 2°55.96 0.9 302 14.5 102710 65
2009-06-22 07:07:12 51°13.662 2°55.96 1.1 323 14.5 102710 65
2009-06-22 07:07:17 51°13.662 2°55.96 1.4 329 14.5 102710 65
2009-06-22 07:07:21 51°13.662 2°55.96 1.1 328 14.5 102710 65
2009-06-22 07:07:27 51°13.662 2°55.96 1.4 309 14.5 102710 65
2009-06-22 07:07:32 51°13.662 2°55.96 1 20 14.5 102710 65
2009-06-22 07:07:37 51°13.662 2°55.96 0.5 301 14.5 102710 65
2009-06-22 07:07:41 51°13.662 2°55.96 0.9 335 14.5 102710 65
2009-06-22 07:07:47 51°13.662 2°55.96 1.2 332 14.5 102710 65
2009-06-22 07:07:52 51°13.662 2°55.96 1.4 330 14.5 102710 65
2009-06-22 07:07:57 51°13.662 2°55.96 1.5 335 14.5 102710 65
2009-06-22 07:08:02 51°13.662 2°55.959 1.7 332 14.6 102710 65
2009-06-22 07:08:07 51°13.661 2°55.959 1.7 336 14.6 102710 65
2009-06-22 07:08:12 51°13.661 2°55.958 1.5 338 14.6 102710 64
2009-06-22 07:08:17 51°13.662 2°55.956 1.3 342 14.6 102710 64
2009-06-22 07:08:21 51°13.662 2°55.953 1 342 14.6 102720 64
2009-06-22 07:08:26 51°13.663 2°55.95 1 341 14.6 102720 64
2009-06-22 07:08:31 51°13.664 2°55.946 0.9 342 14.6 102710 64
2009-06-22 07:08:37 51°13.666 2°55.94 0.7 358 14.6 102710 64
2009-06-22 07:08:42 51°13.668 2°55.934 0.7 359 14.6 102710 64
2009-06-22 07:08:47 51°13.67 2°55.928 0.5 11 14.6 102710 64
2009-06-22 07:08:52 51°13.672 2°55.92 0.6 12 14.6 102710 64
2009-06-22 07:08:57 51°13.675 2°55.913 0.5 24 14.6 102710 64
2009-06-22 07:09:02 51°13.678 2°55.905 0.6 32 14.6 102720 64
2009-06-22 07:09:07 51°13.68 2°55.897 0.5 39 14.6 102720 64
2009-06-22 07:09:12 51°13.682 2°55.89 0.4 40 14.6 102720 63
2009-06-22 07:09:17 51°13.684 2°55.883 0.6 41 14.6 102720 63
2009-06-22 07:09:22 51°13.685 2°55.877 0.6 37 14.6 102720 64
2009-06-22 07:09:27 51°13.687 2°55.87 0.6 35 14.6 102720 64
2009-06-22 07:09:32 51°13.688 2°55.864 0.4 35 14.6 102720 64
2009-06-22 07:09:37 51°13.689 2°55.858 0.4 26 14.6 102720 64
2009-06-22 07:09:41 51°13.69 2°55.852 0.4 26 14.7 102720 64
2009-06-22 07:09:46 51°13.691 2°55.846 0.4 26 14.7 102720 64
2009-06-22 07:09:51 51°13.692 2°55.84 0.4 26 14.7 102720 64
2009-06-22 07:09:56 51°13.693 2°55.833 0.5 29 14.7 102720 64
2009-06-22 07:10:00 51°13.694 2°55.829 0.4 29 14.7 102720 64
2009-06-22 07:10:05 51°13.694 2°55.822 0.4 29 14.7 102720 64
2009-06-22 07:10:11 51°13.695 2°55.814 0.4 29 14.7 102720 64
2009-06-22 07:10:16 51°13.696 2°55.808 0.8 28 14.7 102720 64
2009-06-22 07:10:21 51°13.696 2°55.801 1.1 29 14.7 102720 64
2009-06-22 07:10:27 51°13.696 2°55.793 1.3 25 14.7 102720 64
2009-06-22 07:10:32 51°13.696 2°55.787 1.2 25 14.7 102720 64
2009-06-22 07:10:37 51°13.695 2°55.78 1.6 22 14.7 102720 64
2009-06-22 07:10:42 51°13.695 2°55.775 1.4 22 14.7 102720 64
2009-06-22 07:10:47 51°13.694 2°55.769 1.5 22 14.7 102720 64
2009-06-22 07:10:52 51°13.693 2°55.763 1.5 22 14.7 102720 63
2009-06-22 07:10:57 51°13.692 2°55.758 1.6 24 14.7 102720 63
2009-06-22 07:11:01 51°13.692 2°55.755 1.5 21 14.7 102720 63
2009-06-22 07:11:07 51°13.692 2°55.752 1.6 15 14.7 102720 63
2009-06-22 07:11:11 51°13.692 2°55.751 1.9 6 14.7 102720 63
2009-06-22 07:11:16 51°13.692 2°55.75 1.7 7 14.7 102720 63
2009-06-22 07:11:21 51°13.692 2°55.749 2.1 7 14.7 102720 64
2009-06-22 07:11:26 51°13.692 2°55.749 2.3 8 14.7 102720 64
2009-06-22 07:11:30 51°13.693 2°55.75 2.5 5 14.7 102720 64
2009-06-22 07:11:35 51°13.695 2°55.751 2.5 6 14.7 102720 64
2009-06-22 07:11:40 51°13.697 2°55.752 2.3 360 14.7 102720 63
2009-06-22 07:11:45 51°13.698 2°55.752 2.1 359 14.7 102720 63
2009-06-22 07:11:49 51°13.7 2°55.753 2.3 357 14.6 102720 63
2009-06-22 07:11:54 51°13.702 2°55.753 2.3 358 14.6 102720 63
2009-06-22 07:11:59 51°13.703 2°55.754 2.1 359 14.6 102720 63
2009-06-22 07:12:04 51°13.704 2°55.754 1.6 3 14.6 102720 63
2009-06-22 07:12:09 51°13.704 2°55.753 1.5 6 14.7 102720 64
2009-06-22 07:12:13 51°13.704 2°55.753 1.3 11 14.7 102720 64
2009-06-22 07:12:17 51°13.703 2°55.753 1.6 20 14.6 102720 63
2009-06-22 07:12:23 51°13.701 2°55.753 1.7 28 14.6 102720 63
2009-06-22 07:12:28 51°13.7 2°55.753 1.7 28 14.6 102720 63
2009-06-22 07:12:33 51°13.698 2°55.753 1.6 30 14.6 102720 63
2009-06-22 07:12:39 51°13.697 2°55.753 1.9 43 14.6 102720 63
2009-06-22 07:12:45 51°13.698 2°55.752 2.4 44 14.6 102720 63
2009-06-22 07:12:51 51°13.699 2°55.751 2.1 40 14.6 102720 63
2009-06-22 07:12:56 51°13.701 2°55.749 1.8 45 14.6 102720 63
2009-06-22 07:13:01 51°13.704 2°55.747 1.6 42 14.6 102720 64
2009-06-22 07:13:07 51°13.707 2°55.744 1.6 39 14.6 102720 64
2009-06-22 07:13:11 51°13.709 2°55.742 1.6 40 14.6 102720 64
2009-06-22 07:13:17 51°13.713 2°55.738 1.4 36 14.6 102720 64
2009-06-22 07:13:21 51°13.715 2°55.736 1.2 31 14.6 102720 64
2009-06-22 07:13:26 51°13.719 2°55.732 1.1 23 14.6 102720 64
2009-06-22 07:13:30 51°13.722 2°55.728 0.9 23 14.6 102720 64
2009-06-22 07:13:36 51°13.727 2°55.723 0.7 16 14.6 102720 64
2009-06-22 07:13:40 51°13.731 2°55.719 1.1 14 14.6 102720 64
2009-06-22 07:13:45 51°13.737 2°55.713 0.9 7 14.6 102720 64
2009-06-22 07:13:49 51°13.741 2°55.709 0.8 355 14.6 102720 64
2009-06-22 07:13:54 51°13.747 2°55.703 1.8 343 14.6 102720 64
2009-06-22 07:13:59 51°13.753 2°55.697 2.1 341 14.6 102720 64
2009-06-22 07:14:04 51°13.76 2°55.691 1.8 340 14.6 102720 64
2009-06-22 07:14:09 51°13.766 2°55.685 2 339 14.6 102720 64
2009-06-22 07:14:13 51°13.771 2°55.68 2.3 336 14.6 102720 64
2009-06-22 07:14:18 51°13.778 2°55.674 2.1 340 14.6 102720 64
2009-06-22 07:14:24 51°13.786 2°55.667 2.9 341 14.6 102720 64
2009-06-22 07:14:28 51°13.792 2°55.662 2.7 349 14.6 102720 63
2009-06-22 07:14:33 51°13.799 2°55.656 2.2 344 14.6 102720 63
2009-06-22 07:14:38 51°13.806 2°55.65 3.2 338 14.6 102720 64
2009-06-22 07:14:44 51°13.815 2°55.644 3.3 348 14.6 102720 64
2009-06-22 07:14:48 51°13.82 2°55.639 2.6 349 14.6 102720 64
2009-06-22 07:14:53 51°13.827 2°55.634 3.3 340 14.6 102720 64
2009-06-22 07:14:58 51°13.833 2°55.63 1.9 349 14.6 102720 64
2009-06-22 07:15:04 51°13.841 2°55.628 1.9 349 14.6 102720 64
2009-06-22 07:15:09 51°13.847 2°55.626 1.9 357 14.6 102720 64
2009-06-22 07:15:13 51°13.852 2°55.626 2.2 336 14.6 102720 64
2009-06-22 07:15:18 51°13.857 2°55.626 1.9 343 14.5 102720 64
2009-06-22 07:15:23 51°13.863 2°55.626 2 348 14.5 102720 64
2009-06-22 07:15:28 51°13.868 2°55.626 2.7 348 14.5 102720 64
2009-06-22 07:15:33 51°13.873 2°55.627 2.8 352 14.5 102720 64
2009-06-22 07:15:38 51°13.878 2°55.628 2.6 353 14.5 102720 64
2009-06-22 07:15:44 51°13.883 2°55.63 2.5 352 14.5 102720 64
2009-06-22 07:15:48 51°13.887 2°55.632 2.4 352 14.5 102720 63
2009-06-22 07:15:53 51°13.891 2°55.633 2.1 352 14.5 102720 63
2009-06-22 07:15:58 51°13.896 2°55.635 1.9 352 14.5 102720 64
2009-06-22 07:16:04 51°13.9 2°55.636 2 352 14.5 102720 64
2009-06-22 07:16:08 51°13.903 2°55.637 1.9 356 14.4 102720 63
2009-06-22 07:16:13 51°13.908 2°55.638 2.1 356 14.4 102720 63
2009-06-22 07:16:18 51°13.911 2°55.638 2.1 1 14.4 102720 62
2009-06-22 07:16:24 51°13.916 2°55.639 1.9 3 14.4 102720 62
2009-06-22 07:16:28 51°13.919 2°55.639 1.7 3 14.4 102720 62
2009-06-22 07:16:33 51°13.922 2°55.639 1.6 3 14.4 102720 62
2009-06-22 07:16:38 51°13.925 2°55.639 1.3 3 14.4 102720 63
2009-06-22 07:16:44 51°13.928 2°55.639 1.2 12 14.4 102720 63
2009-06-22 07:16:48 51°13.93 2°55.639 1.5 21 14.4 102720 63
2009-06-22 07:16:53 51°13.932 2°55.638 1.6 26 14.4 102720 63
2009-06-22 07:16:58 51°13.934 2°55.638 1.6 28 14.4 102720 63
2009-06-22 07:17:04 51°13.936 2°55.637 1.7 30 14.4 102720 63
2009-06-22 07:17:08 51°13.937 2°55.637 1.4 30 14.4 102720 63
2009-06-22 07:17:13 51°13.939 2°55.636 1.5 30 14.4 102720 63
2009-06-22 07:17:18 51°13.94 2°55.636 1.7 32 14.3 102720 63
2009-06-22 07:17:24 51°13.942 2°55.635 1.5 37 14.3 102720 63
2009-06-22 07:17:28 51°13.942 2°55.635 1.6 37 14.3 102720 64
2009-06-22 07:17:33 51°13.944 2°55.634 1.4 32 14.3 102720 64
2009-06-22 07:17:38 51°13.944 2°55.634 1.9 31 14.3 102720 63
2009-06-22 07:17:44 51°13.945 2°55.633 1.7 44 14.3 102720 63
2009-06-22 07:17:48 51°13.945 2°55.633 1.5 44 14.3 102720 63
2009-06-22 07:17:53 51°13.945 2°55.633 1.7 43 14.3 102720 63
2009-06-22 07:17:58 51°13.945 2°55.632 1.5 41 14.3 102720 63
2009-06-22 07:18:04 51°13.945 2°55.632 1.3 41 14.3 102720 63
2009-06-22 07:18:08 51°13.945 2°55.632 1 41 14.3 102720 63
2009-06-22 07:18:13 51°13.945 2°55.631 0.9 42 14.3 102720 63
2009-06-22 07:18:18 51°13.946 2°55.631 0.8 42 14.3 102720 63
2009-06-22 07:18:24 51°13.946 2°55.63 0.5 42 14.3 102720 63
2009-06-22 07:18:28 51°13.947 2°55.629 0.4 42 14.3 102720 63
2009-06-22 07:18:33 51°13.948 2°55.627 0.3 42 14.3 102720 63
2009-06-22 07:18:38 51°13.95 2°55.626 0.2 42 14.3 102720 64
2009-06-22 07:18:44 51°13.952 2°55.623 0.9 20 14.3 102720 64
2009-06-22 07:18:48 51°13.954 2°55.62 0.9 2 14.3 102720 63
2009-06-22 07:18:53 51°13.957 2°55.617 1 2 14.3 102720 63
2009-06-22 07:18:58 51°13.959 2°55.614 1.2 3 14.3 102720 64
2009-06-22 07:19:04 51°13.964 2°55.609 1.1 6 14.3 102720 64
2009-06-22 07:19:08 51°13.967 2°55.606 1.2 2 14.3 102720 64
2009-06-22 07:19:13 51°13.971 2°55.601 1.2 351 14.3 102720 64
2009-06-22 07:19:18 51°13.976 2°55.596 1.4 354 14.3 102720 64
2009-06-22 07:19:24 51°13.981 2°55.59 1.6 353 14.3 102720 64
2009-06-22 07:19:28 51°13.986 2°55.586 2.2 352 14.3 102720 64
2009-06-22 07:19:33 51°13.992 2°55.579 2.3 352 14.3 102720 64
2009-06-22 07:19:38 51°13.998 2°55.573 1.8 353 14.3 102720 64
2009-06-22 07:19:44 51°14.005 2°55.564 2 344 14.3 102720 64
2009-06-22 07:19:48 51°14.011 2°55.558 2.3 345 14.3 102720 64
2009-06-22 07:19:53 51°14.018 2°55.549 2.4 345 14.3 102720 64
2009-06-22 07:19:58 51°14.025 2°55.541 2.6 348 14.3 102720 64
2009-06-22 07:20:04 51°14.035 2°55.53 2.5 345 14.3 102720 64
2009-06-22 07:20:08 51°14.041 2°55.523 2.3 346 14.3 102720 63
2009-06-22 07:20:13 51°14.05 2°55.513 2.8 343 14.3 102720 63
2009-06-22 07:20:18 51°14.059 2°55.503 2.2 344 14.3 102720 63
2009-06-22 07:20:24 51°14.07 2°55.491 2.8 337 14.3 102720 63
2009-06-22 07:20:28 51°14.077 2°55.483 2.6 338 14.3 102720 63
2009-06-22 07:20:33 51°14.086 2°55.473 2.3 340 14.3 102720 63
2009-06-22 07:20:38 51°14.096 2°55.462 2.7 336 14.2 102720 64
2009-06-22 07:20:44 51°14.107 2°55.449 3.2 336 14.2 102720 64
2009-06-22 07:20:48 51°14.116 2°55.44 2.6 336 14.2 102720 64
2009-06-22 07:20:53 51°14.126 2°55.43 2.7 337 14.2 102720 64
2009-06-22 07:20:58 51°14.136 2°55.419 3.3 342 14.2 102720 64
2009-06-22 07:21:04 51°14.148 2°55.405 3.2 343 14.2 102720 64
2009-06-22 07:21:08 51°14.156 2°55.396 2.9 338 14.2 102720 64
2009-06-22 07:21:13 51°14.166 2°55.384 2.3 343 14.2 102720 64
2009-06-22 07:21:18 51°14.176 2°55.373 3 340 14.2 102720 64
2009-06-22 07:21:24 51°14.188 2°55.358 2.3 343 14.2 102720 64
2009-06-22 07:21:28 51°14.196 2°55.348 2.3 341 14.2 102720 64
2009-06-22 07:21:33 51°14.205 2°55.335 2.9 341 14.2 102720 64
2009-06-22 07:21:38 51°14.215 2°55.322 3 339 14.2 102720 63
2009-06-22 07:21:44 51°14.226 2°55.305 2.8 337 14.2 102720 63
2009-06-22 07:21:48 51°14.233 2°55.295 2.7 338 14.2 102720 63
2009-06-22 07:21:53 51°14.242 2°55.281 4.1 337 14.2 102720 63
2009-06-22 07:21:58 51°14.251 2°55.266 3.6 342 14.2 102720 64
2009-06-22 07:22:04 51°14.261 2°55.248 3.6 341 14.2 102720 64
2009-06-22 07:22:08 51°14.268 2°55.236 2.6 342 14.2 102720 63
2009-06-22 07:22:13 51°14.277 2°55.221 3.5 339 14.2 102720 63
2009-06-22 07:22:18 51°14.286 2°55.206 4.2 337 14.2 102720 64
2009-06-22 07:22:24 51°14.296 2°55.188 4.3 339 14.2 102720 64
2009-06-22 07:22:28 51°14.303 2°55.176 4.3 341 14.2 102720 64
2009-06-22 07:22:33 51°14.311 2°55.159 3.1 339 14.2 102720 64
2009-06-22 07:22:38 51°14.319 2°55.143 4.2 343 14.2 102720 63
2009-06-22 07:22:44 51°14.329 2°55.123 3.9 342 14.2 102720 63
2009-06-22 07:22:48 51°14.335 2°55.11 3.5 341 14.2 102720 63
2009-06-22 07:22:53 51°14.343 2°55.092 4 339 14.2 102720 63
2009-06-22 07:22:58 51°14.351 2°55.075 3.3 339 14.2 102720 64
2009-06-22 07:23:04 51°14.36 2°55.054 3.9 340 14.2 102720 64
2009-06-22 07:23:08 51°14.366 2°55.04 3.8 339 14.2 102720 64
2009-06-22 07:23:13 51°14.373 2°55.021 3.9 337 14.2 102720 64
2009-06-22 07:23:18 51°14.38 2°55.001 3.1 336 14.2 102720 64
2009-06-22 07:23:24 51°14.387 2°54.978 3 334 14.2 102720 64
2009-06-22 07:23:28 51°14.391 2°54.961 4 334 14.2 102720 64
2009-06-22 07:23:33 51°14.395 2°54.939 3 331 14.2 102720 64
2009-06-22 07:23:38 51°14.398 2°54.916 3.7 332 14.1 102720 63
2009-06-22 07:23:44 51°14.402 2°54.887 3.3 337 14.1 102720 63
2009-06-22 07:23:48 51°14.403 2°54.868 4.5 329 14.2 102720 63
2009-06-22 07:23:53 51°14.404 2°54.843 3.7 329 14.2 102720 63
2009-06-22 07:23:58 51°14.405 2°54.817 3.6 329 14.1 102720 63
2009-06-22 07:24:04 51°14.404 2°54.786 3.7 327 14.1 102720 63
2009-06-22 07:24:08 51°14.403 2°54.765 3.7 327 14.1 102720 63
2009-06-22 07:24:13 51°14.401 2°54.74 3.5 325 14.1 102720 63
2009-06-22 07:24:18 51°14.398 2°54.713 3.6 325 14.1 102720 62
2009-06-22 07:24:24 51°14.393 2°54.682 3.9 303 14.1 102720 62
2009-06-22 07:24:28 51°14.39 2°54.662 3.3 324 14.1 102720 62
2009-06-22 07:24:33 51°14.387 2°54.635 3.6 301 14.1 102720 62
2009-06-22 07:24:38 51°14.383 2°54.609 3.7 324 14.1 102720 62
2009-06-22 07:24:44 51°14.38 2°54.576 3.6 326 14.1 102720 62
2009-06-22 07:24:48 51°14.377 2°54.555 3.1 328 14.1 102710 62
2009-06-22 07:24:53 51°14.375 2°54.528 3.2 328 14.1 102710 62
2009-06-22 07:24:58 51°14.372 2°54.501 3.4 328 14.2 102720 62
2009-06-22 07:25:04 51°14.367 2°54.469 4.6 333 14.2 102720 62
2009-06-22 07:25:08 51°14.365 2°54.447 5.5 332 14.2 102720 62
2009-06-22 07:25:13 51°14.361 2°54.42 4.1 330 14.2 102720 62
2009-06-22 07:25:18 51°14.357 2°54.394 4.4 332 14.2 102720 62
2009-06-22 07:25:24 51°14.351 2°54.362 4.6 302 14.2 102720 62
2009-06-22 07:25:28 51°14.347 2°54.341 4.3 332 14.2 102710 63
2009-06-22 07:25:33 51°14.342 2°54.314 4.6 330 14.2 102710 63
2009-06-22 07:25:38 51°14.336 2°54.288 5.4 331 14.3 102720 63
2009-06-22 07:25:44 51°14.328 2°54.257 4.8 333 14.3 102720 63
2009-06-22 07:25:48 51°14.323 2°54.236 5.6 328 14.3 102720 63
2009-06-22 07:25:53 51°14.316 2°54.209 5.4 330 14.3 102720 63
2009-06-22 07:25:58 51°14.31 2°54.184 5.8 332 14.3 102720 63
2009-06-22 07:26:04 51°14.301 2°54.153 4.6 330 14.3 102720 63
2009-06-22 07:26:08 51°14.295 2°54.132 4.7 333 14.3 102720 63
2009-06-22 07:26:13 51°14.289 2°54.106 5.3 328 14.3 102720 63
2009-06-22 07:26:18 51°14.281 2°54.08 5.4 331 14.3 102710 63
2009-06-22 07:26:24 51°14.272 2°54.05 4.8 332 14.3 102710 63
2009-06-22 07:26:28 51°14.266 2°54.03 3.8 328 14.3 102710 63
2009-06-22 07:26:33 51°14.259 2°54.004 5.7 279 14.3 102710 63
2009-06-22 07:26:38 51°14.251 2°53.979 4.6 323 14.3 102720 63
2009-06-22 07:26:44 51°14.241 2°53.948 5.7 304 14.3 102720 63
2009-06-22 07:26:48 51°14.235 2°53.928 5.1 323 14.3 102720 62
2009-06-22 07:26:53 51°14.227 2°53.902 4.6 309 14.3 102720 62
2009-06-22 07:26:58 51°14.22 2°53.877 4.7 322 14.3 102720 63
2009-06-22 07:27:04 51°14.21 2°53.846 4.2 303 14.3 102720 63
2009-06-22 07:27:08 51°14.204 2°53.826 4.1 327 14.3 102710 63
2009-06-22 07:27:13 51°14.196 2°53.8 4.4 327 14.3 102710 63
2009-06-22 07:27:18 51°14.188 2°53.775 5.3 327 14.3 102720 63
2009-06-22 07:27:24 51°14.179 2°53.744 4 326 14.3 102720 63
2009-06-22 07:27:28 51°14.173 2°53.724 4.6 326 14.3 102710 63
2009-06-22 07:27:33 51°14.166 2°53.698 4.3 281 14.3 102710 63
2009-06-22 07:27:38 51°14.158 2°53.673 4.5 328 14.4 102720 64
2009-06-22 07:27:44 51°14.148 2°53.642 4.9 329 14.4 102720 64
2009-06-22 07:27:48 51°14.142 2°53.622 5 329 14.4 102720 63
2009-06-22 07:27:53 51°14.135 2°53.597 4.7 325 14.4 102720 63
2009-06-22 07:27:58 51°14.127 2°53.571 5.6 325 14.4 102720 63
2009-06-22 07:28:04 51°14.118 2°53.541 5.2 305 14.4 102720 63
2009-06-22 07:28:08 51°14.112 2°53.521 5.2 326 14.4 102720 63
2009-06-22 07:28:13 51°14.105 2°53.495 5.3 322 14.4 102720 63
2009-06-22 07:28:18 51°14.098 2°53.47 4.2 327 14.4 102720 63
2009-06-22 07:28:24 51°14.089 2°53.439 4.2 328 14.4 102720 63
2009-06-22 07:28:28 51°14.084 2°53.419 5.2 330 14.4 102720 63
2009-06-22 07:28:33 51°14.076 2°53.393 5 283 14.4 102720 63
2009-06-22 07:28:38 51°14.069 2°53.368 4.2 327 14.4 102720 63
2009-06-22 07:28:44 51°14.059 2°53.338 4.2 330 14.4 102720 63
2009-06-22 07:28:48 51°14.053 2°53.318 5 325 14.4 102720 63
2009-06-22 07:28:53 51°14.045 2°53.293 4.9 326 14.4 102720 63
2009-06-22 07:28:58 51°14.037 2°53.268 5.3 326 14.4 102720 62
2009-06-22 07:29:04 51°14.028 2°53.238 4.4 323 14.4 102720 62
2009-06-22 07:29:08 51°14.021 2°53.218 4.5 328 14.4 102720 63
2009-06-22 07:29:13 51°14.013 2°53.193 4.9 323 14.4 102720 63
2009-06-22 07:29:18 51°14.005 2°53.168 4.7 323 14.4 102720 62
2009-06-22 07:29:24 51°13.995 2°53.137 5 322 14.4 102720 62
2009-06-22 07:29:28 51°13.989 2°53.117 4.9 324 14.4 102720 62
2009-06-22 07:29:33 51°13.981 2°53.091 4.4 280 14.4 102720 62
2009-06-22 07:29:38 51°13.972 2°53.066 5.4 325 14.5 102720 62
2009-06-22 07:29:44 51°13.962 2°53.036 4.5 304 14.5 102720 62
2009-06-22 07:29:48 51°13.955 2°53.016 4.9 324 14.5 102720 62
2009-06-22 07:29:53 51°13.947 2°52.992 6.1 301 14.5 102720 62
2009-06-22 07:29:58 51°13.938 2°52.967 5.6 325 14.4 102720 63
2009-06-22 07:30:04 51°13.927 2°52.938 5.4 325 14.4 102720 63
2009-06-22 07:30:08 51°13.92 2°52.918 5.1 323 14.5 102720 62
2009-06-22 07:30:13 51°13.911 2°52.893 5.7 322 14.5 102720 62
2009-06-22 07:30:18 51°13.902 2°52.869 4.7 322 14.5 102720 63
2009-06-22 07:30:24 51°13.891 2°52.839 4.1 306 14.5 102720 63
2009-06-22 07:30:28 51°13.883 2°52.82 4.3 319 14.5 102720 62
2009-06-22 07:30:33 51°13.875 2°52.795 4.1 280 14.5 102720 62
2009-06-22 07:30:38 51°13.865 2°52.771 4.6 319 14.5 102720 63
2009-06-22 07:30:44 51°13.854 2°52.741 3.6 307 14.5 102720 63
2009-06-22 07:30:48 51°13.847 2°52.722 3.5 319 14.5 102720 62
2009-06-22 07:30:53 51°13.838 2°52.697 4.6 303 14.5 102720 62
2009-06-22 07:30:58 51°13.829 2°52.674 4.8 321 14.5 102720 62
2009-06-22 07:31:04 51°13.818 2°52.644 4 302 14.5 102720 62
2009-06-22 07:31:08 51°13.81 2°52.626 4 322 14.5 102720 62
2009-06-22 07:31:13 51°13.8 2°52.602 3.3 307 14.5 102720 62
2009-06-22 07:31:18 51°13.79 2°52.578 3.8 324 14.5 102720 62
2009-06-22 07:31:24 51°13.779 2°52.549 3.9 330 14.5 102720 62
2009-06-22 07:31:28 51°13.772 2°52.53 4.1 328 14.5 102720 62
2009-06-22 07:31:33 51°13.762 2°52.507 4.9 279 14.5 102720 62
2009-06-22 07:31:38 51°13.753 2°52.482 5 324 14.5 102720 62
2009-06-22 07:31:44 51°13.742 2°52.453 5 301 14.5 102720 62
2009-06-22 07:31:48 51°13.734 2°52.434 5.2 323 14.6 102730 63
2009-06-22 07:31:53 51°13.725 2°52.41 4.8 328 14.6 102730 63
2009-06-22 07:31:58 51°13.716 2°52.385 4.9 324 14.6 102720 62
2009-06-22 07:32:04 51°13.706 2°52.355 4 334 14.6 102720 62
2009-06-22 07:32:08 51°13.698 2°52.335 3.9 325 14.6 102720 62
2009-06-22 07:32:13 51°13.69 2°52.31 3.7 328 14.6 102720 62
2009-06-22 07:32:18 51°13.682 2°52.285 4.5 326 14.6 102710 63
2009-06-22 07:32:24 51°13.672 2°52.255 4.3 328 14.6 102710 63
2009-06-22 07:32:28 51°13.665 2°52.235 4.1 328 14.6 102720 62
2009-06-22 07:32:33 51°13.656 2°52.21 3.5 280 14.6 102720 62
2009-06-22 07:32:38 51°13.647 2°52.185 3.6 331 14.6 102720 62
2009-06-22 07:32:44 51°13.637 2°52.155 4.3 325 14.6 102720 62
2009-06-22 07:32:48 51°13.63 2°52.135 4.2 331 14.6 102720 61
2009-06-22 07:32:53 51°13.623 2°52.11 3.4 327 14.6 102720 61
2009-06-22 07:32:58 51°13.614 2°52.085 4.3 331 14.6 102730 62
2009-06-22 07:33:04 51°13.604 2°52.055 3.9 331 14.6 102730 62
2009-06-22 07:33:08 51°13.597 2°52.035 4.3 328 14.6 102720 62
2009-06-22 07:33:13 51°13.588 2°52.01 3.8 301 14.6 102720 62
2009-06-22 07:33:18 51°13.579 2°51.985 3.6 326 14.6 102720 62
2009-06-22 07:33:24 51°13.569 2°51.955 3.7 302 14.6 102720 62
2009-06-22 07:33:28 51°13.562 2°51.935 3.9 330 14.6 102720 62
2009-06-22 07:33:33 51°13.554 2°51.91 4.4 279 14.6 102720 62
2009-06-22 07:33:38 51°13.545 2°51.885 4 326 14.6 102720 62
2009-06-22 07:33:44 51°13.535 2°51.855 4.8 329 14.6 102720 62
2009-06-22 07:33:48 51°13.528 2°51.835 4.2 324 14.6 102720 62
2009-06-22 07:33:53 51°13.519 2°51.81 4.5 304 14.6 102720 62
2009-06-22 07:33:58 51°13.511 2°51.785 5.1 328 14.6 102720 63
2009-06-22 07:34:04 51°13.5 2°51.755 4.4 304 14.6 102720 63
2009-06-22 07:34:08 51°13.493 2°51.735 4.9 321 14.6 102730 63
2009-06-22 07:34:13 51°13.485 2°51.71 5 309 14.6 102730 63
2009-06-22 07:34:18 51°13.476 2°51.686 5.4 318 14.6 102720 63
2009-06-22 07:34:24 51°13.466 2°51.655 4.2 302 14.6 102720 63
2009-06-22 07:34:28 51°13.459 2°51.636 4.5 320 14.6 102720 63
2009-06-22 07:34:33 51°13.451 2°51.612 4.4 279 14.6 102720 63
2009-06-22 07:34:38 51°13.444 2°51.59 4.3 20 14.6 102720 63
2009-06-22 07:34:44 51°13.436 2°51.565 4 308 14.6 102720 63
2009-06-22 07:34:48 51°13.432 2°51.549 3.4 319 14.6 102720 63
2009-06-22 07:34:53 51°13.426 2°51.531 3.6 309 14.6 102720 63
2009-06-22 07:34:58 51°13.422 2°51.513 3.3 21 14.6 102720 63
2009-06-22 07:35:04 51°13.416 2°51.494 2.7 301 14.6 102720 63
2009-06-22 07:35:08 51°13.414 2°51.482 3.3 26 14.7 102730 62
2009-06-22 07:35:13 51°13.41 2°51.468 2.8 304 14.7 102730 62
2009-06-22 07:35:18 51°13.406 2°51.456 2.4 25 14.7 102730 63
2009-06-22 07:35:24 51°13.402 2°51.443 2 304 14.7 102730 63
2009-06-22 07:35:28 51°13.399 2°51.434 2.1 26 14.7 102730 63
2009-06-22 07:35:33 51°13.396 2°51.425 1.8 282 14.7 102730 63
2009-06-22 07:35:38 51°13.394 2°51.416 1.7 30 14.7 102720 63
2009-06-22 07:35:44 51°13.391 2°51.406 1.3 301 14.7 102720 63
2009-06-22 07:35:49 51°13.389 2°51.398 1.1 27 14.7 102730 63
2009-06-22 07:35:53 51°13.388 2°51.393 0.8 308 14.7 102730 63
2009-06-22 07:35:58 51°13.386 2°51.386 0.9 249 14.7 102730 63
2009-06-22 07:36:04 51°13.385 2°51.379 0.8 304 14.7 102730 63
2009-06-22 07:36:08 51°13.384 2°51.375 0.9 253 14.7 102730 63
2009-06-22 07:36:13 51°13.383 2°51.371 0.8 302 14.7 102730 63
2009-06-22 07:36:18 51°13.382 2°51.367 0.9 267 14.7 102730 63
2009-06-22 07:36:24 51°13.38 2°51.363 1.3 59 14.7 102730 63
2009-06-22 07:36:28 51°13.38 2°51.36 1.5 23 14.8 102730 63
2009-06-22 07:36:33 51°13.378 2°51.357 0.8 77 14.8 102730 63
2009-06-22 07:36:38 51°13.377 2°51.355 0.9 24 14.8 102730 62
2009-06-22 07:36:44 51°13.376 2°51.351 1 55 14.8 102730 62
2009-06-22 07:36:48 51°13.375 2°51.349 1.3 27 14.8 102730 62
2009-06-22 07:36:53 51°13.374 2°51.346 1.4 53 14.8 102730 62
2009-06-22 07:36:58 51°13.373 2°51.343 1.7 28 14.9 102730 63
2009-06-22 07:37:04 51°13.372 2°51.34 1.6 54 14.9 102730 63
2009-06-22 07:37:08 51°13.371 2°51.338 1.7 28 14.9 102730 63
2009-06-22 07:37:13 51°13.37 2°51.335 1.5 50 14.9 102730 63
2009-06-22 07:37:18 51°13.369 2°51.333 1.8 20 14.9 102730 63
2009-06-22 07:37:24 51°13.368 2°51.329 2.1 58 14.9 102730 63
2009-06-22 07:37:28 51°13.367 2°51.327 1.9 28 14.9 102730 62
2009-06-22 07:37:33 51°13.366 2°51.324 2 75 14.9 102730 62
2009-06-22 07:37:38 51°13.365 2°51.321 2 28 14.9 102730 61
2009-06-22 07:37:44 51°13.364 2°51.318 2.1 49 14.9 102730 61
2009-06-22 07:37:48 51°13.363 2°51.316 2.3 28 14.9 102730 61
2009-06-22 07:37:53 51°13.362 2°51.313 2.1 53 14.9 102730 61
2009-06-22 07:37:58 51°13.361 2°51.31 2.2 28 14.9 102730 61
2009-06-22 07:38:04 51°13.36 2°51.307 2.1 59 14.9 102730 61
2009-06-22 07:38:08 51°13.359 2°51.305 1.7 20 15 102730 62
2009-06-22 07:38:13 51°13.358 2°51.302 2 55 15 102730 62
2009-06-22 07:38:18 51°13.357 2°51.299 1.4 24 14.9 102730 62
2009-06-22 07:38:24 51°13.356 2°51.295 1.3 55 14.9 102730 62
2009-06-22 07:38:28 51°13.355 2°51.293 2.1 19 14.9 102730 61
2009-06-22 07:38:33 51°13.354 2°51.29 1.8 83 14.9 102730 61
2009-06-22 07:38:38 51°13.353 2°51.288 1.4 26 15 102730 62
2009-06-22 07:38:44 51°13.352 2°51.284 1.6 52 15 102730 62
2009-06-22 07:38:48 51°13.351 2°51.282 1.2 20 14.9 102730 62
2009-06-22 07:38:53 51°13.35 2°51.279 1.3 54 14.9 102730 62
2009-06-22 07:38:58 51°13.349 2°51.275 1.1 28 15 102730 62
2009-06-22 07:39:04 51°13.347 2°51.269 1.1 56 15 102730 62
2009-06-22 07:39:08 51°13.347 2°51.265 0.7 25 15 102730 62
2009-06-22 07:39:13 51°13.346 2°51.258 0.5 54 15 102730 62
2009-06-22 07:39:18 51°13.344 2°51.252 0.5 21 15 102730 62
2009-06-22 07:39:24 51°13.342 2°51.243 0.7 53 15 102730 62
2009-06-22 07:39:28 51°13.34 2°51.237 0.9 28 15.1 102730 62
2009-06-22 07:39:33 51°13.338 2°51.228 1.4 285 15.1 102730 62
2009-06-22 07:39:38 51°13.335 2°51.22 1.5 258 15.1 102740 62
2009-06-22 07:39:44 51°13.331 2°51.208 1.8 300 15.1 102740 62
2009-06-22 07:39:48 51°13.328 2°51.2 1.5 249 15.1 102730 62
2009-06-22 07:39:53 51°13.323 2°51.188 1.8 308 15.1 102730 62
2009-06-22 07:39:58 51°13.318 2°51.174 2.2 21 15.2 102730 62
2009-06-22 07:40:04 51°13.312 2°51.158 2.3 307 15.2 102730 62
2009-06-22 07:40:08 51°13.307 2°51.146 2.4 21 15.2 102730 62
2009-06-22 07:40:13 51°13.301 2°51.13 3.1 302 15.2 102730 62
2009-06-22 07:40:18 51°13.295 2°51.113 3 319 15.3 102730 62
2009-06-22 07:40:24 51°13.287 2°51.09 3.6 303 15.3 102730 62
2009-06-22 07:40:28 51°13.281 2°51.074 3.3 320 15.3 102730 62
2009-06-22 07:40:33 51°13.274 2°51.053 3.4 283 15.3 102730 62
2009-06-22 07:40:38 51°13.266 2°51.032 3.4 325 15.3 102730 62
2009-06-22 07:40:44 51°13.257 2°51.005 4 305 15.3 102730 62
2009-06-22 07:40:48 51°13.251 2°50.987 4.8 324 15.3 102730 61
2009-06-22 07:40:53 51°13.242 2°50.964 5 325 15.3 102730 61
2009-06-22 07:40:58 51°13.234 2°50.94 4.5 324 15.3 102730 61
2009-06-22 07:41:04 51°13.224 2°50.912 5.4 304 15.3 102730 61
2009-06-22 07:41:08 51°13.217 2°50.892 4.7 325 15.3 102730 61
2009-06-22 07:41:13 51°13.208 2°50.868 4.9 325 15.3 102730 61
2009-06-22 07:41:18 51°13.2 2°50.844 4.9 324 15.3 102730 61
2009-06-22 07:41:24 51°13.19 2°50.815 5.2 326 15.3 102730 61
2009-06-22 07:41:28 51°13.183 2°50.796 6 323 15.2 102730 61
2009-06-22 07:41:33 51°13.173 2°50.772 5.8 283 15.2 102730 61
2009-06-22 07:41:38 51°13.165 2°50.747 6.1 327 15.2 102730 61
2009-06-22 07:41:44 51°13.155 2°50.718 5.4 330 15.2 102730 61
2009-06-22 07:41:48 51°13.148 2°50.699 5.4 327 15.2 102730 62
2009-06-22 07:41:53 51°13.139 2°50.674 6.2 329 15.2 102730 62
2009-06-22 07:41:58 51°13.13 2°50.65 6.1 330 15.2 102730 62
2009-06-22 07:42:04 51°13.12 2°50.621 6.4 327 15.2 102730 62
2009-06-22 07:42:08 51°13.113 2°50.601 5.6 327 15.2 102730 62
2009-06-22 07:42:13 51°13.104 2°50.576 6.1 329 15.2 102730 62
2009-06-22 07:42:18 51°13.095 2°50.552 6.2 329 15.2 102730 62
2009-06-22 07:42:24 51°13.085 2°50.523 6.4 328 15.2 102730 62
2009-06-22 07:42:28 51°13.077 2°50.503 6.4 330 15.1 102740 61
2009-06-22 07:42:33 51°13.069 2°50.479 5.4 301 15.1 102740 61
2009-06-22 07:42:38 51°13.06 2°50.455 5.4 328 15.1 102730 61
2009-06-22 07:42:44 51°13.049 2°50.426 5.6 302 15.1 102730 61
2009-06-22 07:42:48 51°13.042 2°50.406 5 326 15.1 102740 61
2009-06-22 07:42:53 51°13.034 2°50.382 5.6 327 15.1 102740 61
2009-06-22 07:42:58 51°13.025 2°50.358 5.5 327 15 102730 62
2009-06-22 07:43:04 51°13.014 2°50.328 4.7 328 15 102730 62
2009-06-22 07:43:08 51°13.007 2°50.309 5.5 328 15 102730 61
2009-06-22 07:43:13 51°12.997 2°50.285 4.8 332 15 102730 61
2009-06-22 07:43:18 51°12.988 2°50.261 5.3 330 15 102730 61
2009-06-22 07:43:24 51°12.977 2°50.232 5.3 328 15 102730 61
2009-06-22 07:43:28 51°12.97 2°50.213 4.8 323 15 102730 61
2009-06-22 07:43:33 51°12.961 2°50.189 5.8 279 15 102730 61
2009-06-22 07:43:39 51°12.95 2°50.16 4.9 320 15 102730 61
2009-06-22 07:43:44 51°12.941 2°50.135 4.9 302 15 102730 61
2009-06-22 07:43:48 51°12.934 2°50.116 5.2 324 15 102730 62
2009-06-22 07:43:53 51°12.925 2°50.092 6.2 325 15 102730 62
2009-06-22 07:43:58 51°12.916 2°50.067 6.6 326 15 102730 63
2009-06-22 07:44:04 51°12.905 2°50.038 5.4 324 15 102730 63
2009-06-22 07:44:08 51°12.898 2°50.019 5.4 324 14.9 102730 63
2009-06-22 07:44:13 51°12.889 2°49.994 6.2 325 14.9 102730 63
2009-06-22 07:44:18 51°12.881 2°49.97 5.2 327 14.9 102730 64
2009-06-22 07:44:24 51°12.87 2°49.94 5.9 302 14.9 102730 64
2009-06-22 07:44:28 51°12.863 2°49.921 5 328 14.9 102730 63
2009-06-22 07:44:33 51°12.854 2°49.896 5.9 284 14.9 102730 63
2009-06-22 07:44:38 51°12.845 2°49.871 4.8 327 14.9 102720 64
2009-06-22 07:44:44 51°12.834 2°49.842 5.7 326 14.9 102720 64
2009-06-22 07:44:48 51°12.828 2°49.822 4.5 327 14.9 102730 63
2009-06-22 07:44:53 51°12.818 2°49.798 5.1 328 14.9 102730 63
2009-06-22 07:44:58 51°12.81 2°49.773 5.2 324 14.9 102730 63
2009-06-22 07:45:04 51°12.799 2°49.743 5 300 14.9 102730 63
2009-06-22 07:45:08 51°12.793 2°49.723 5.2 327 14.8 102730 63
2009-06-22 07:45:13 51°12.784 2°49.699 5.5 327 14.8 102730 63
2009-06-22 07:45:18 51°12.775 2°49.674 5.8 330 14.8 102730 63
2009-06-22 07:45:24 51°12.764 2°49.644 6.6 331 14.8 102730 63
2009-06-22 07:45:28 51°12.757 2°49.625 5.7 330 14.8 102730 63
2009-06-22 07:45:33 51°12.748 2°49.6 5.6 280 14.8 102730 63
2009-06-22 07:45:38 51°12.74 2°49.576 5.2 328 14.8 102730 63
2009-06-22 07:45:44 51°12.729 2°49.545 5.4 330 14.8 102730 63
2009-06-22 07:45:48 51°12.722 2°49.526 6.1 330 14.8 102730 63
2009-06-22 07:45:53 51°12.713 2°49.501 6 330 14.8 102730 63
2009-06-22 07:45:59 51°12.703 2°49.472 5.3 329 14.8 102730 63
2009-06-22 07:46:04 51°12.694 2°49.447 5 333 14.8 102730 63
2009-06-22 07:46:08 51°12.687 2°49.427 4.9 328 14.7 102730 63
2009-06-22 07:46:13 51°12.678 2°49.403 4.9 328 14.7 102730 63
2009-06-22 07:46:18 51°12.67 2°49.377 4.5 327 14.7 102730 63
2009-06-22 07:46:24 51°12.66 2°49.348 6 303 14.7 102730 63
2009-06-22 07:46:28 51°12.653 2°49.328 5.1 323 14.8 102730 63
2009-06-22 07:46:33 51°12.644 2°49.303 5.3 285 14.8 102730 63
2009-06-22 07:46:38 51°12.635 2°49.278 5.2 326 14.7 102730 63
2009-06-22 07:46:44 51°12.626 2°49.248 5 324 14.7 102730 63
2009-06-22 07:46:48 51°12.619 2°49.228 4.8 325 14.7 102730 63
2009-06-22 07:46:53 51°12.611 2°49.203 5.2 303 14.7 102730 63
2009-06-22 07:46:58 51°12.602 2°49.178 4.5 326 14.7 102730 63
2009-06-22 07:47:04 51°12.592 2°49.148 5.1 302 14.7 102730 63
2009-06-22 07:47:09 51°12.583 2°49.123 5.3 324 14.7 102730 63
2009-06-22 07:47:13 51°12.576 2°49.103 5.3 324 14.7 102730 63
2009-06-22 07:47:18 51°12.568 2°49.078 5.2 323 14.7 102730 63
2009-06-22 07:47:24 51°12.558 2°49.049 4.8 308 14.7 102730 63
2009-06-22 07:47:28 51°12.551 2°49.028 4.1 322 14.7 102730 63
2009-06-22 07:47:33 51°12.542 2°49.003 4.5 285 14.7 102730 63
2009-06-22 07:47:38 51°12.534 2°48.978 5.5 322 14.7 102730 63
2009-06-22 07:47:44 51°12.524 2°48.948 5.4 324 14.7 102730 63
2009-06-22 07:47:48 51°12.517 2°48.928 4.7 322 14.7 102730 63
2009-06-22 07:47:53 51°12.509 2°48.903 5.4 305 14.7 102730 63
2009-06-22 07:47:58 51°12.501 2°48.878 5.3 323 14.7 102730 64
2009-06-22 07:48:04 51°12.491 2°48.848 4.5 324 14.7 102730 64
2009-06-22 07:48:08 51°12.484 2°48.828 5.2 323 14.7 102730 64
2009-06-22 07:48:13 51°12.475 2°48.803 5.9 322 14.7 102730 64
2009-06-22 07:48:18 51°12.467 2°48.777 5.6 323 14.7 102730 64
2009-06-22 07:48:24 51°12.457 2°48.748 5.7 304 14.7 102730 64
2009-06-22 07:48:28 51°12.45 2°48.728 4.9 323 14.8 102730 64
2009-06-22 07:48:33 51°12.441 2°48.703 4.5 283 14.8 102730 64
2009-06-22 07:48:38 51°12.432 2°48.678 5.7 325 14.8 102730 64
2009-06-22 07:48:44 51°12.421 2°48.649 5 303 14.8 102730 64
2009-06-22 07:48:48 51°12.414 2°48.629 5.1 322 14.8 102730 64
2009-06-22 07:48:53 51°12.406 2°48.604 4.9 301 14.8 102730 64
2009-06-22 07:48:58 51°12.397 2°48.579 4.9 323 14.8 102740 63
2009-06-22 07:49:04 51°12.387 2°48.549 4.5 323 14.8 102740 63
2009-06-22 07:49:09 51°12.378 2°48.524 5.2 324 14.8 102730 64
2009-06-22 07:49:13 51°12.372 2°48.504 4.9 326 14.8 102730 64
2009-06-22 07:49:18 51°12.363 2°48.48 5 323 14.8 102730 64
2009-06-22 07:49:24 51°12.352 2°48.45 4.3 305 14.8 102730 64
2009-06-22 07:49:29 51°12.344 2°48.426 5.2 320 14.8 102730 63
2009-06-22 07:49:33 51°12.337 2°48.406 4.3 279 14.8 102730 63
2009-06-22 07:49:38 51°12.329 2°48.381 4.9 323 14.8 102730 64
2009-06-22 07:49:44 51°12.318 2°48.352 4.1 302 14.8 102730 64
2009-06-22 07:49:48 51°12.311 2°48.332 4.9 322 14.8 102730 63
2009-06-22 07:49:53 51°12.302 2°48.308 4.8 327 14.8 102730 63
2009-06-22 07:49:58 51°12.294 2°48.284 5.3 321 14.8 102730 63
2009-06-22 07:50:04 51°12.283 2°48.254 5.3 326 14.8 102730 63
2009-06-22 07:50:08 51°12.276 2°48.235 5.8 325 14.8 102730 63
2009-06-22 07:50:13 51°12.267 2°48.211 4.7 327 14.8 102730 63
2009-06-22 07:50:19 51°12.256 2°48.181 4.5 324 14.8 102730 63
2009-06-22 07:50:24 51°12.247 2°48.157 5.5 302 14.8 102730 63
2009-06-22 07:50:28 51°12.24 2°48.137 5.6 324 14.8 102730 64
2009-06-22 07:50:33 51°12.231 2°48.114 4.9 280 14.8 102730 64
2009-06-22 07:50:38 51°12.223 2°48.089 5 325 14.8 102730 64
2009-06-22 07:50:44 51°12.212 2°48.06 5.3 303 14.8 102730 64
2009-06-22 07:50:48 51°12.206 2°48.04 4.2 327 14.8 102730 64
2009-06-22 07:50:53 51°12.196 2°48.016 4.1 326 14.8 102730 64
2009-06-22 07:50:58 51°12.188 2°47.992 4.5 323 14.8 102730 64
2009-06-22 07:51:04 51°12.178 2°47.962 4.5 303 14.8 102730 64
2009-06-22 07:51:08 51°12.17 2°47.944 5.1 321 14.8 102730 63
2009-06-22 07:51:13 51°12.162 2°47.919 5.2 325 14.8 102730 63
2009-06-22 07:51:18 51°12.153 2°47.895 5.4 323 14.8 102720 63
2009-06-22 07:51:24 51°12.143 2°47.865 4.8 325 14.8 102720 63
2009-06-22 07:51:29 51°12.134 2°47.841 5.2 322 14.8 102730 63
2009-06-22 07:51:33 51°12.127 2°47.821 4.5 278 14.8 102730 63
2009-06-22 07:51:38 51°12.119 2°47.797 5 325 14.8 102730 63
2009-06-22 07:51:44 51°12.109 2°47.768 5.1 303 14.8 102730 63
2009-06-22 07:51:48 51°12.101 2°47.749 4.3 324 14.8 102730 63
2009-06-22 07:51:53 51°12.093 2°47.724 4.5 302 14.8 102730 63
2009-06-22 07:51:58 51°12.084 2°47.7 4.1 323 14.8 102730 63
2009-06-22 07:52:04 51°12.074 2°47.671 5 324 14.8 102730 63
2009-06-22 07:52:08 51°12.067 2°47.651 4 324 14.8 102730 62
2009-06-22 07:52:13 51°12.058 2°47.626 4.6 302 14.8 102730 62
2009-06-22 07:52:18 51°12.05 2°47.602 3.7 326 14.8 102730 63
2009-06-22 07:52:24 51°12.04 2°47.573 3.9 326 14.8 102730 63
2009-06-22 07:52:28 51°12.033 2°47.553 3.8 327 14.8 102730 63
2009-06-22 07:52:33 51°12.024 2°47.529 4.3 300 14.8 102730 63
2009-06-22 07:52:39 51°12.015 2°47.499 4.4 324 14.8 102730 63
2009-06-22 07:52:44 51°12.006 2°47.474 3.6 302 14.8 102730 63
2009-06-22 07:52:48 51°11.999 2°47.454 4.2 327 14.8 102730 63
2009-06-22 07:52:53 51°11.991 2°47.429 4.4 330 14.8 102730 63
2009-06-22 07:52:58 51°11.982 2°47.405 4.1 328 14.8 102730 63
2009-06-22 07:53:04 51°11.973 2°47.375 4.2 326 14.8 102730 63
2009-06-22 07:53:08 51°11.966 2°47.355 3.6 323 14.8 102730 63
2009-06-22 07:53:13 51°11.957 2°47.33 3.3 302 14.8 102730 63
2009-06-22 07:53:18 51°11.949 2°47.306 4.9 328 14.8 102730 63
2009-06-22 07:53:24 51°11.939 2°47.276 4.5 330 14.8 102730 63
2009-06-22 07:53:28 51°11.932 2°47.256 4.6 327 14.8 102730 63
2009-06-22 07:53:33 51°11.924 2°47.231 4.5 279 14.8 102730 63
2009-06-22 07:53:38 51°11.916 2°47.205 4.6 331 14.8 102730 63
2009-06-22 07:53:44 51°11.906 2°47.175 4.3 300 14.8 102730 63
2009-06-22 07:53:49 51°11.898 2°47.15 4.2 329 14.8 102730 63
2009-06-22 07:53:53 51°11.892 2°47.13 3.3 304 14.8 102730 63
2009-06-22 07:53:58 51°11.884 2°47.105 3.4 326 14.8 102730 63
2009-06-22 07:54:04 51°11.874 2°47.075 4.7 303 14.8 102730 63
2009-06-22 07:54:09 51°11.866 2°47.05 4.3 329 14.9 102730 63
2009-06-22 07:54:13 51°11.86 2°47.03 3.8 328 14.9 102730 63
2009-06-22 07:54:18 51°11.852 2°47.005 3.8 330 14.9 102740 63
2009-06-22 07:54:24 51°11.843 2°46.974 4.8 302 14.9 102740 63
2009-06-22 07:54:28 51°11.837 2°46.954 3.8 328 14.9 102740 63
2009-06-22 07:54:33 51°11.829 2°46.929 3.6 328 14.9 102740 63
2009-06-22 07:54:38 51°11.821 2°46.903 3.7 328 14.9 102730 64
2009-06-22 07:54:44 51°11.812 2°46.874 4.5 326 14.9 102730 64
2009-06-22 07:54:48 51°11.806 2°46.853 4.7 329 14.9 102740 63
2009-06-22 07:54:53 51°11.799 2°46.828 3.9 329 14.9 102740 63
2009-06-22 07:54:59 51°11.789 2°46.798 5 333 14.9 102740 63
2009-06-22 07:55:04 51°11.782 2°46.773 5.1 303 14.9 102740 63
2009-06-22 07:55:08 51°11.777 2°46.752 4 334 14.9 102730 64
2009-06-22 07:55:13 51°11.77 2°46.726 4.4 327 14.9 102730 64
2009-06-22 07:55:19 51°11.762 2°46.695 5 330 14.9 102730 64
2009-06-22 07:55:24 51°11.756 2°46.669 3.9 303 14.9 102730 64
2009-06-22 07:55:28 51°11.751 2°46.648 4.4 329 14.9 102730 64
2009-06-22 07:55:33 51°11.745 2°46.622 5 284 14.9 102730 64
2009-06-22 07:55:38 51°11.739 2°46.596 3.9 328 14.9 102730 63
2009-06-22 07:55:44 51°11.733 2°46.564 3.6 326 14.9 102730 63
2009-06-22 07:55:49 51°11.727 2°46.538 4.4 328 14.9 102740 64
2009-06-22 07:55:53 51°11.722 2°46.517 3.7 327 14.9 102740 64
2009-06-22 07:55:58 51°11.716 2°46.49 3.5 328 14.9 102740 64
2009-06-22 07:56:04 51°11.709 2°46.458 4.2 304 14.9 102740 64
2009-06-22 07:56:09 51°11.704 2°46.432 3.5 328 14.9 102740 63
2009-06-22 07:56:13 51°11.699 2°46.411 4.3 325 14.9 102740 63
2009-06-22 07:56:18 51°11.694 2°46.384 3.3 325 14.9 102740 63
2009-06-22 07:56:24 51°11.687 2°46.352 4.4 304 14.9 102740 63
2009-06-22 07:56:28 51°11.683 2°46.33 4.3 323 14.9 102740 63
2009-06-22 07:56:33 51°11.677 2°46.304 4.3 300 14.9 102740 63
2009-06-22 07:56:38 51°11.672 2°46.277 3.5 323 14.9 102740 63
2009-06-22 07:56:44 51°11.664 2°46.245 4.1 328 14.9 102740 63
2009-06-22 07:56:48 51°11.66 2°46.224 4.5 326 14.9 102740 63
2009-06-22 07:56:53 51°11.653 2°46.197 3.5 326 14.9 102740 63
2009-06-22 07:56:59 51°11.647 2°46.165 3.9 324 14.8 102740 63
2009-06-22 07:57:04 51°11.641 2°46.138 4.5 327 14.8 102740 63
2009-06-22 07:57:08 51°11.637 2°46.117 4.3 323 14.8 102730 63
2009-06-22 07:57:13 51°11.631 2°46.09 3.9 324 14.8 102730 63
2009-06-22 07:57:19 51°11.625 2°46.058 3.9 325 14.8 102740 63
2009-06-22 07:57:24 51°11.619 2°46.031 3.5 303 14.8 102740 63
2009-06-22 07:57:28 51°11.615 2°46.009 3.2 324 14.8 102740 63
2009-06-22 07:57:33 51°11.609 2°45.982 3.4 285 14.8 102740 63
2009-06-22 07:57:37 51°11.605 2°45.96 3.9 325 14.8 102730 63
2009-06-22 07:57:44 51°11.597 2°45.923 3.6 302 14.8 102730 63
2009-06-22 07:57:48 51°11.592 2°45.901 4.6 324 14.9 102740 63
2009-06-22 07:57:53 51°11.586 2°45.874 3.9 325 14.9 102740 63
2009-06-22 07:57:57 51°11.582 2°45.853 4.7 325 14.9 102730 63
2009-06-22 07:58:03 51°11.575 2°45.82 3.6 328 14.9 102730 63
2009-06-22 07:58:09 51°11.568 2°45.788 3.6 327 14.9 102740 64
2009-06-22 07:58:13 51°11.563 2°45.767 5.1 330 14.9 102740 64
2009-06-22 07:58:17 51°11.559 2°45.745 4 327 14.9 102740 64
2009-06-22 07:58:23 51°11.552 2°45.712 4.4 301 14.9 102740 64
2009-06-22 07:58:28 51°11.546 2°45.686 3.7 329 14.9 102740 64
2009-06-22 07:58:33 51°11.541 2°45.659 3.9 330 14.9 102740 64
2009-06-22 07:58:38 51°11.535 2°45.632 4.3 332 14.9 102740 64
2009-06-22 07:58:44 51°11.528 2°45.6 3.5 327 14.9 102740 64
2009-06-22 07:58:48 51°11.524 2°45.578 4.1 333 14.9 102730 64
2009-06-22 07:58:53 51°11.517 2°45.552 4 331 14.9 102730 64
2009-06-22 07:58:58 51°11.512 2°45.524 3.8 332 14.9 102740 63
2009-06-22 07:59:04 51°11.505 2°45.492 4.6 330 14.9 102740 63
2009-06-22 07:59:09 51°11.499 2°45.465 3.8 327 14.9 102740 63
2009-06-22 07:59:13 51°11.495 2°45.444 3.7 328 14.9 102740 63
2009-06-22 07:59:18 51°11.489 2°45.417 3.8 326 14.9 102740 63
2009-06-22 07:59:24 51°11.483 2°45.384 3.7 324 14.9 102740 63
2009-06-22 07:59:28 51°11.478 2°45.363 4.3 325 14.9 102740 63
2009-06-22 07:59:33 51°11.472 2°45.336 4.1 279 14.9 102740 63
2009-06-22 07:59:39 51°11.465 2°45.304 3.3 325 14.9 102740 64
2009-06-22 07:59:44 51°11.46 2°45.277 3.3 301 14.9 102740 64
2009-06-22 07:59:48 51°11.455 2°45.255 3.1 327 14.9 102740 63
2009-06-22 07:59:53 51°11.449 2°45.228 3.5 302 14.9 102740 63
2009-06-22 07:59:58 51°11.443 2°45.201 3.7 328 14.9 102740 63
2009-06-22 08:00:04 51°11.436 2°45.169 3.7 302 14.9 102740 63
2009-06-22 08:00:09 51°11.43 2°45.142 4.6 330 15 102740 64
2009-06-22 08:00:13 51°11.425 2°45.12 5.2 327 15 102740 64
2009-06-22 08:00:18 51°11.419 2°45.094 5.2 331 15 102740 64
2009-06-22 08:00:23 51°11.413 2°45.067 4.6 323 15 102740 64
2009-06-22 08:00:29 51°11.406 2°45.035 3.8 329 15 102740 64
2009-06-22 08:00:33 51°11.401 2°45.014 5.1 331 15 102740 64
2009-06-22 08:00:38 51°11.395 2°44.987 3.7 331 15 102740 64
2009-06-22 08:00:44 51°11.387 2°44.955 4 330 15 102740 64
2009-06-22 08:00:48 51°11.383 2°44.933 4.7 329 15 102740 64
2009-06-22 08:00:53 51°11.377 2°44.906 4.4 329 15 102740 64
2009-06-22 08:00:58 51°11.371 2°44.879 4.4 330 15 102740 64
2009-06-22 08:01:04 51°11.365 2°44.846 4.5 330 15 102740 64
2009-06-22 08:01:09 51°11.36 2°44.819 4.3 331 15 102740 63
2009-06-22 08:01:14 51°11.354 2°44.792 4.4 328 15 102740 63
2009-06-22 08:01:18 51°11.349 2°44.769 4.4 330 14.9 102740 64
2009-06-22 08:01:24 51°11.343 2°44.737 4.5 329 14.9 102740 64
2009-06-22 08:01:28 51°11.338 2°44.715 4.3 330 14.9 102740 63
2009-06-22 08:01:33 51°11.333 2°44.688 4.8 286 14.9 102740 63
2009-06-22 08:01:38 51°11.327 2°44.661 3.8 331 14.9 102740 63
2009-06-22 08:01:44 51°11.32 2°44.628 3.7 329 14.9 102740 63
2009-06-22 08:01:48 51°11.315 2°44.606 3.9 329 14.9 102730 64
2009-06-22 08:01:53 51°11.31 2°44.579 3.7 328 14.9 102730 64
2009-06-22 08:01:58 51°11.304 2°44.552 4.3 332 14.9 102740 64
2009-06-22 08:02:04 51°11.297 2°44.519 3.6 334 14.9 102740 64
2009-06-22 08:02:08 51°11.293 2°44.497 3.6 332 14.9 102740 64
2009-06-22 08:02:13 51°11.287 2°44.47 3.8 333 14.9 102740 64
2009-06-22 08:02:18 51°11.281 2°44.443 3.4 333 14.9 102740 63
2009-06-22 08:02:24 51°11.274 2°44.41 3.9 333 14.9 102740 63
2009-06-22 08:02:29 51°11.268 2°44.383 3.2 332 14.9 102740 63
2009-06-22 08:02:33 51°11.263 2°44.361 2.9 334 14.9 102740 63
2009-06-22 08:02:38 51°11.258 2°44.334 3.4 329 14.9 102740 63
2009-06-22 08:02:44 51°11.251 2°44.301 3.4 333 14.9 102740 63
2009-06-22 08:02:48 51°11.246 2°44.28 3.5 334 14.9 102740 63
2009-06-22 08:02:53 51°11.24 2°44.253 2.7 329 14.9 102740 63
2009-06-22 08:02:58 51°11.234 2°44.225 3.4 327 14.9 102740 63
2009-06-22 08:03:04 51°11.228 2°44.193 2.9 326 14.9 102740 63
2009-06-22 08:03:09 51°11.222 2°44.166 3.6 329 14.9 102740 63
2009-06-22 08:03:13 51°11.217 2°44.144 3.6 329 14.9 102740 63
2009-06-22 08:03:18 51°11.212 2°44.117 3.6 333 14.9 102740 64
2009-06-22 08:03:24 51°11.206 2°44.084 3.9 335 14.9 102740 64
2009-06-22 08:03:28 51°11.202 2°44.061 3.6 332 14.9 102740 63
2009-06-22 08:03:33 51°11.197 2°44.034 2.9 282 14.9 102740 63
2009-06-22 08:03:38 51°11.192 2°44.007 2.8 332 15 102730 64
2009-06-22 08:03:44 51°11.186 2°43.974 2.7 335 15 102730 64
2009-06-22 08:03:48 51°11.182 2°43.952 3.2 333 15 102740 64
2009-06-22 08:03:53 51°11.177 2°43.924 3.1 336 15 102740 64
2009-06-22 08:03:58 51°11.172 2°43.897 2.9 337 15 102740 64
2009-06-22 08:04:04 51°11.167 2°43.864 3.2 335 15 102740 64
2009-06-22 08:04:08 51°11.164 2°43.842 2.8 337 15 102740 63
2009-06-22 08:04:13 51°11.16 2°43.814 3.1 333 15 102740 63
2009-06-22 08:04:18 51°11.157 2°43.786 2.6 339 15 102740 63
2009-06-22 08:04:24 51°11.154 2°43.752 2.5 339 15 102740 63
2009-06-22 08:04:28 51°11.153 2°43.73 2.7 339 15 102740 63
2009-06-22 08:04:33 51°11.151 2°43.701 4.2 278 15 102740 63
2009-06-22 08:04:38 51°11.149 2°43.673 4.2 336 15 102740 63
2009-06-22 08:04:44 51°11.147 2°43.639 4 331 15 102740 63
2009-06-22 08:04:48 51°11.146 2°43.617 4.4 339 15 102740 63
2009-06-22 08:04:53 51°11.145 2°43.588 4.8 336 15 102740 63
2009-06-22 08:04:58 51°11.143 2°43.56 5.4 339 15 102740 64
2009-06-22 08:05:04 51°11.142 2°43.526 4.6 336 15 102740 64
2009-06-22 08:05:08 51°11.141 2°43.503 4.9 335 15 102730 65
2009-06-22 08:05:13 51°11.14 2°43.475 3.7 334 15 102730 65
2009-06-22 08:05:18 51°11.138 2°43.446 4.6 333 15 102730 65
2009-06-22 08:05:24 51°11.137 2°43.412 3.9 333 15 102730 65
2009-06-22 08:05:28 51°11.136 2°43.389 4.2 333 15 102730 64
2009-06-22 08:05:33 51°11.135 2°43.361 5.2 279 15 102730 64
2009-06-22 08:05:38 51°11.133 2°43.332 5.3 344 15 102730 64
2009-06-22 08:05:44 51°11.132 2°43.298 4.5 351 15 102730 64
2009-06-22 08:05:48 51°11.131 2°43.277 4.9 352 15 102730 63
2009-06-22 08:05:53 51°11.129 2°43.249 3.6 356 15 102730 63
2009-06-22 08:05:58 51°11.128 2°43.222 3.5 356 15 102730 64
2009-06-22 08:06:04 51°11.126 2°43.19 3.4 355 15 102730 64
2009-06-22 08:06:08 51°11.125 2°43.169 3.4 -999 14.9 102730 64
2009-06-22 08:06:13 51°11.123 2°43.143 3 353 14.9 102730 64
2009-06-22 08:06:18 51°11.122 2°43.118 4.8 348 14.9 102730 63
2009-06-22 08:06:24 51°11.121 2°43.086 5.1 348 14.9 102730 63
2009-06-22 08:06:28 51°11.12 2°43.066 4.7 352 14.9 102730 64
2009-06-22 08:06:33 51°11.119 2°43.04 5 350 14.9 102730 64
2009-06-22 08:06:39 51°11.117 2°43.009 4.7 353 14.8 102730 64
2009-06-22 08:06:44 51°11.116 2°42.984 5.8 350 14.8 102730 64
2009-06-22 08:06:48 51°11.115 2°42.963 5.7 351 14.8 102730 65
2009-06-22 08:06:53 51°11.114 2°42.937 5.3 352 14.8 102730 65
2009-06-22 08:06:58 51°11.113 2°42.912 5 352 14.7 102720 64
2009-06-22 08:07:04 51°11.111 2°42.881 4.7 353 14.7 102720 64
2009-06-22 08:07:08 51°11.11 2°42.861 4.7 352 14.7 102730 63
2009-06-22 08:07:13 51°11.109 2°42.835 4.1 352 14.7 102730 63